#timestamp,LO_Frequency,Hit,StdDev 
1683396015.6,286046999.1,N
1683396035.4,286046999.4,N
1683396055.2,286046996.9,N
1683396075.1,286046999.5,N
1683396076.0,286046999.5,N
1683396095.8,286046999.6,N
1683396115.7,286046999.3,N
1683396135.5,286046999.1,N
1683396155.3,286046999.2,N
1683396175.2,286046997.1,N
1683396195.0,286046999.5,N
1683396195.9,286046999.5,N
1683396215.8,286046996.6,N
1683396235.6,286046997.3,N
1683396255.4,286046997.2,N
1683396275.3,286046999.5,N
1683396295.1,286046999.3,N
1683396296.0,286046999.3,N
1683396315.8,286046999.5,N
1683396335.7,286046996.5,N
1683396355.5,286046996.8,N
1683396375.3,286046999.5,N
1683396395.2,286046999.2,N
1683396415.0,286046996.5,N
1683396415.9,286046996.5,N
1683396435.8,286046996.8,N
1683396455.6,286046997.1,N
1683396475.4,286046996.8,N
1683396495.3,286046997.3,N
1683396515.1,286046997.3,N
1683396535.9,286046994.9,Y
1683396555.7,286046999.0,P
1683396575.5,286046999.5,N
1683396595.4,286046998.8,N
1683396615.2,286046996.9,Y
1683396635.0,286046999.3,P
1683396636.0,286046999.3,P
1683396655.8,286046999.2,P
1683396675.6,286046998.8,Y
1683396695.5,286047000.9,P
1683396715.3,286047001.1,N
1683396735.1,286047002.3,N
1683396755.9,286047002.2,N
1683396775.7,286047002.3,N
1683396795.6,286047000.2,N
1683396815.4,286046999.9,N
1683396835.2,286047000.3,N
1683396855.1,286047000.6,N
1683396856.0,286047000.6,N
1683396875.8,286047000.8,N
1683396895.6,286047000.6,N
1683396915.5,286046998.5,N
1683396935.3,286046998.6,N
1683396955.2,286047001.1,N
1683396975.9,286046998.1,N
1683396995.7,286047000.9,N
1683397015.6,286047000.3,N
1683397035.4,286047000.9,N
1683397055.2,286047000.5,N
1683397075.1,286047000.6,N
1683397076.0,286047000.6,N
1683397095.8,286047001.2,N
1683397115.7,286047000.9,N
1683397135.5,286047000.8,N
1683397155.3,286047001.2,N
1683397175.2,286046998.3,N
1683397195.0,286046998.8,N
1683397195.9,286046998.8,N
1683397215.8,286046999.4,N
1683397235.6,286046999.2,N
1683397255.4,286046999.2,N
1683397275.3,286046996.5,Y
1683397295.1,286046999.4,P
1683397315.9,286046998.3,P
1683397335.7,286046999.3,N
1683397355.5,286046998.8,N
1683397375.4,286047001.1,N
1683397395.2,286046998.5,N
1683397415.1,286046998.2,N
1683397416.0,286046998.2,N
1683397435.8,286047000.8,N
1683397455.6,286047000.8,N
1683397475.5,286047000.9,N
1683397495.3,286047000.7,N
1683397515.2,286046998.6,N
1683397535.9,286046998.1,N
1683397555.7,286046999.0,N
1683397575.6,286046998.9,N
1683397595.4,286046999.0,N
1683397615.2,286046996.8,Y
1683397635.1,286046999.3,P
1683397636.0,286046999.3,P
1683397655.8,286046996.6,P
1683397675.7,286046997.5,N
1683397695.5,286046996.5,Y
1683397715.3,286047000.5,P
1683397735.2,286047000.2,N
1683397755.0,286046999.9,N
1683397755.9,286046999.9,N
1683397775.7,286047000.6,N
1683397795.6,286047000.7,N
1683397815.4,286046998.6,N
1683397835.3,286046998.5,N
1683397855.1,286047001.1,N
1683397856.0,286047001.1,N
1683397875.8,286046998.5,N
1683397895.7,286046998.5,N
1683397915.5,286047000.8,N
1683397935.3,286046998.2,N
1683397955.2,286047000.7,N
1683397975.0,286047000.7,N
1683397975.9,286047000.7,N
1683397995.8,286046999.9,N
1683398015.6,286047002.8,N
1683398035.4,286047002.8,N
1683398055.3,286047002.0,N
1683398075.1,286047002.5,N
1683398095.8,286046999.7,N
1683398115.7,286046999.9,N
1683398135.5,286047000.3,N
1683398155.4,286046999.9,N
1683398175.2,286047002.7,N
1683398195.0,286047002.3,N
1683398195.9,286047002.3,N
1683398215.8,286047001.4,N
1683398235.6,286047003.8,N
1683398255.5,286047002.2,N
1683398275.3,286047001.5,N
1683398295.1,286047003.9,N
1683398315.9,286047004.3,N
1683398335.7,286047003.7,N
1683398355.5,286047003.9,N
1683398375.4,286047003.3,N
1683398395.2,286047005.8,Y
1683398415.1,286047004.0,P
1683398416.0,286047004.0,P
1683398435.8,286047003.5,N
1683398455.6,286047001.4,N
1683398475.5,286047004.3,Y
1683398495.3,286047000.7,P
1683398515.1,286047001.0,N
1683398535.9,286047000.0,N
1683398555.7,286047001.1,N
1683398575.6,286046999.7,N
1683398595.4,286047002.6,N
1683398615.2,286047001.3,N
1683398635.1,286047002.4,N
1683398636.0,286047002.4,N
1683398655.8,286047002.8,N
1683398675.6,286047002.6,N
1683398695.5,286047002.2,N
1683398715.3,286047002.5,N
1683398735.2,286047001.7,N
1683398755.9,286047004.2,Y
1683398775.7,286047002.7,P
1683398795.6,286047001.6,P
1683398815.4,286047001.9,P
1683398835.3,286047002.7,Y
1683398855.1,286046998.6,P
1683398856.0,286046998.6,N
1683398875.8,286046998.6,N
1683398895.7,286046998.4,N
1683398915.5,286047001.1,N
1683398935.3,286047001.0,N
1683398955.2,286046998.2,N
1683398975.0,286047000.8,N
1683398975.9,286047000.8,N
1683398995.8,286046998.8,N
1683399015.6,286046998.6,N
1683399035.4,286046999.3,N
1683399055.3,286046998.2,N
1683399075.1,286046998.9,N
1683399095.8,286047000.9,N
1683399115.7,286047000.8,N
1683399135.5,286047000.3,N
1683399155.4,286047000.0,N
1683399175.2,286047001.2,N
1683399195.0,286047000.8,N
1683399195.9,286047000.8,N
1683399215.8,286047000.3,N
1683399235.6,286046999.7,N
1683399255.4,286047002.8,N
1683399275.3,286047002.7,N
1683399295.1,286047000.1,N
1683399315.9,286047000.4,N
1683399335.7,286047002.4,N
1683399355.5,286047002.8,N
1683399375.4,286047001.4,N
1683399395.2,286047001.4,N
1683399415.0,286047002.8,N
1683399416.0,286047002.8,N
1683399435.8,286047002.4,N
1683399455.6,286047000.1,N
1683399475.5,286047000.2,N
1683399495.3,286047000.1,N
1683399515.1,286047000.0,N
1683399535.9,286047000.1,N
1683399555.7,286047002.7,N
1683399575.5,286047002.7,N
1683399595.4,286047002.3,N
